{"data":{"norad_id":61262,"intl_designator":"2024-175V","name":"STARLINK-32446","alt_names":[],"object_type":"PAYLOAD","status":"ACTIVE","operator":null,"country":"US","launch_date":"2024-09-25","launch_site_code":"AFWTR","launch_vehicle":null,"mission":null,"orbit_class":"UNKNOWN","rcs_meters":null,"size_class":null,"mass_kg":null,"dimensions":null,"purposes":["comms"],"wikipedia_slug":null,"has_3d_model":false,"image_url":null,"decayed_at":null,"tle_current":{"epoch":"2026-09-21T13:11:07.489536Z","epoch_age_seconds":101503,"freshness":"FRESH","line1":"1 61262U 24175V   26264.54939224  .00001444  00000+0  53878-4 0  9991","line2":"2 61262  53.1627   0.5336 0001169  73.8410 286.2721 15.34382093111492","mean_motion":15.34382093,"eccentricity":0.0001169,"inclination_deg":53.1627,"raan_deg":0.5336,"arg_perigee_deg":73.841,"mean_anomaly_deg":286.2721,"bstar":5.3878e-5,"rev_number":11149,"period_min":93.848853331215,"perigee_km":461.9567636565,"apogee_km":463.55616454841,"semimajor_km":6840.8934641025,"source":"CELESTRAK","updated_at":"2026-09-22T09:00:49.352335Z"}}}